When you browse on this site, cookies collect data to enhance your experience and personalize the content and advertising you see.
Visit our Privacy Policy to learn more. By continuing to use the site, you agree to this use of cookies and data.
  • In United Kingdom
  • List of Countries
  • For 7 days
  • Water Temperature
  • Weather Map
  • Weather Widgets
  • user-avatar
    Login

    Hourly Weather Borovec

    Today, 17 October, Thursday

    Time Temperature Precipitation Wind Pressure Humidity
    00:00 +14°C° 0 mm 0 mps 712 mmHg 55%
    01:00 +13°C° 0 mm 0 mps 712 mmHg 57%
    02:00 +13°C° 0 mm 0 mps 712 mmHg 58%
    03:00 +13°C° 0 mm 0 mps 712 mmHg 58%
    04:00 +12°C° 0 mm 0 mps 712 mmHg 59%
    05:00 +12°C° 0 mm 0 mps 712 mmHg 60%
    06:00 +13°C° 0 mm 0 mps 712 mmHg 58%
    07:00 +14°C° 0 mm 0 mps 712 mmHg 56%
    08:00 +15°C° 0 mm 0 mps 712 mmHg 54%
    09:00 +17°C° 0 mm 0 mps 713 mmHg 47%
    10:00 +20°C° 0 mm 0 mps 713 mmHg 41%
    11:00 +22°C° 0 mm 0 mps 714 mmHg 34%
    12:00 +23°C° 0 mm 0 mps 713 mmHg 32%
    13:00 +26°C° 0 mm 1 mps 713 mmHg 29%
    14:00 +27°C° 0 mm 1 mps 713 mmHg 27%
    15:00 +25°C° 0 mm 1 mps 713 mmHg 30%
    16:00 +24°C° 0 mm 1 mps 712 mmHg 34%
    17:00 +23°C° 0 mm 1 mps 712 mmHg 37%
    18:00 +21°C° 0 mm 1 mps 712 mmHg 41%
    19:00 +20°C° 0 mm 1 mps 712 mmHg 45%
    20:00 +18°C° 0 mm 1 mps 712 mmHg 49%
    21:00 +18°C° 0 mm 1 mps 712 mmHg 50%
    22:00 +16°C° 0 mm 1 mps 712 mmHg 51%
    23:00 +15°C° 0 mm 0 mps 713 mmHg 53%

    Tomorrow, 18 October, Friday

    Time Temperature Precipitation Wind Pressure Humidity
    00:00 +14°C° 0 mm 0 mps 713 mmHg 54%
    01:00 +14°C° 0 mm 0 mps 712 mmHg 55%
    02:00 +13°C° 0 mm 0 mps 712 mmHg 56%
    03:00 +13°C° 0 mm 0 mps 712 mmHg 57%
    04:00 +13°C° 0 mm 0 mps 712 mmHg 57%
    05:00 +13°C° 0 mm 0 mps 712 mmHg 58%
    06:00 +13°C° 0 mm 0 mps 712 mmHg 56%
    07:00 +14°C° 0 mm 0 mps 713 mmHg 55%
    08:00 +15°C° 0 mm 0 mps 713 mmHg 53%
    09:00 +17°C° 0 mm 0 mps 713 mmHg 47%
    10:00 +20°C° 0 mm 0 mps 713 mmHg 40%
    11:00 +22°C° 0 mm 0 mps 713 mmHg 34%
    12:00 +25°C° 0 mm 1 mps 713 mmHg 32%
    13:00 +26°C° 0 mm 1 mps 713 mmHg 30%
    14:00 +27°C° 0 mm 1 mps 712 mmHg 28%
    15:00 +25°C° 0 mm 1 mps 712 mmHg 32%
    16:00 +24°C° 0 mm 1 mps 712 mmHg 36%
    17:00 +23°C° 0 mm 1 mps 712 mmHg 40%
    18:00 +22°C° 0 mm 1 mps 711 mmHg 44%
    19:00 +20°C° 0 mm 1 mps 711 mmHg 48%
    20:00 +18°C° 0 mm 1 mps 711 mmHg 52%
    21:00 +18°C° 0 mm 1 mps 711 mmHg 53%
    22:00 +16°C° 0 mm 1 mps 712 mmHg 54%
    23:00 +16°C° 0 mm 1 mps 712 mmHg 56%

    Day after tomorrow, 19 October, Saturday

    Time Temperature Precipitation Wind Pressure Humidity
    00:00 +16°C° 0 mm 1 mps 712 mmHg 57%
    01:00 +15°C° 0 mm 1 mps 712 mmHg 59%
    02:00 +14°C° 0 mm 0 mps 712 mmHg 60%
    03:00 +14°C° 0 mm 0 mps 712 mmHg 62%
    04:00 +13°C° 0 mm 0 mps 712 mmHg 63%
    05:00 +13°C° 0 mm 0 mps 712 mmHg 65%
    06:00 +14°C° 0 mm 0 mps 712 mmHg 63%
    07:00 +14°C° 0 mm 0 mps 712 mmHg 62%
    08:00 +15°C° 0 mm 0 mps 712 mmHg 60%
    09:00 +18°C° 0 mm 0 mps 713 mmHg 53%
    10:00 +20°C° 0 mm 0 mps 713 mmHg 47%
    11:00 +24°C° 0 mm 1 mps 713 mmHg 40%
    12:00 +25°C° 0 mm 1 mps 713 mmHg 38%
    13:00 +26°C° 0 mm 1 mps 713 mmHg 35%
    14:00 +27°C° 0 mm 1 mps 713 mmHg 33%
    15:00 +26°C° 0 mm 1 mps 712 mmHg 36%
    16:00 +25°C° 0 mm 1 mps 712 mmHg 39%
    17:00 +23°C° 0 mm 1 mps 712 mmHg 43%
    18:00 +22°C° 0 mm 1 mps 712 mmHg 47%
    19:00 +20°C° 0 mm 1 mps 712 mmHg 51%
    20:00 +19°C° 0 mm 1 mps 712 mmHg 56%
    21:00 +18°C° 0 mm 1 mps 713 mmHg 58%
    22:00 +18°C° 0 mm 1 mps 713 mmHg 59%
    23:00 +16°C° 0 mm 1 mps 713 mmHg 61%

    20 October, Sunday

    Time Temperature Precipitation Wind Pressure Humidity
    00:00 +16°C° 0 mm 1 mps 713 mmHg 63%
    01:00 +15°C° 0 mm 1 mps 713 mmHg 64%
    02:00 +15°C° 0 mm 1 mps 713 mmHg 65%
    03:00 +14°C° 0 mm 0 mps 713 mmHg 67%
    04:00 +13°C° 0 mm 0 mps 713 mmHg 68%
    05:00 +13°C° 0 mm 0 mps 713 mmHg 69%
    06:00 +14°C° 0 mm 0 mps 713 mmHg 67%
    07:00 +15°C° 0 mm 0 mps 713 mmHg 65%
    08:00 +15°C° 0 mm 0 mps 714 mmHg 63%
    09:00 +18°C° 0 mm 0 mps 714 mmHg 56%
    10:00 +22°C° 0 mm 1 mps 714 mmHg 49%
    11:00 +24°C° 0 mm 1 mps 715 mmHg 41%
    12:00 +25°C° 0 mm 1 mps 714 mmHg 38%
    13:00 +26°C° 0 mm 1 mps 714 mmHg 35%
    14:00 +27°C° 0 mm 1 mps 714 mmHg 32%
    15:00 +26°C° 0 mm 1 mps 714 mmHg 36%
    16:00 +25°C° 0 mm 1 mps 713 mmHg 39%
    17:00 +24°C° 0 mm 1 mps 713 mmHg 42%
    18:00 +22°C° 0 mm 1 mps 713 mmHg 47%
    19:00 +20°C° 0 mm 1 mps 713 mmHg 51%
    20:00 +19°C° 0 mm 1 mps 714 mmHg 56%
    21:00 +18°C° 0 mm 1 mps 714 mmHg 58%
    22:00 +18°C° 0 mm 1 mps 714 mmHg 60%
    23:00 +16°C° 0 mm 1 mps 714 mmHg 62%

    21 October, Monday

    Time Temperature Precipitation Wind Pressure Humidity
    00:00 +15°C° 0 mm 0 mps 714 mmHg 63%
    01:00 +14°C° 0 mm 0 mps 714 mmHg 65%
    02:00 +14°C° 0 mm 0 mps 714 mmHg 66%
    03:00 +14°C° 0 mm 0 mps 714 mmHg 67%
    04:00 +13°C° 0 mm 0 mps 714 mmHg 68%
    05:00 +13°C° 0 mm 0 mps 714 mmHg 69%
    06:00 +14°C° 0 mm 0 mps 714 mmHg 67%
    07:00 +15°C° 0 mm 0 mps 715 mmHg 65%
    08:00 +15°C° 0 mm 0 mps 715 mmHg 63%
    09:00 +18°C° 0 mm 0 mps 715 mmHg 55%
    10:00 +20°C° 0 mm 0 mps 716 mmHg 47%
    11:00 +23°C° 0 mm 0 mps 716 mmHg 40%
    12:00 +25°C° 0 mm 1 mps 716 mmHg 38%
    13:00 +26°C° 0 mm 1 mps 716 mmHg 35%
    14:00 +27°C° 0 mm 1 mps 715 mmHg 33%
    15:00 +25°C° 0 mm 2 mps 715 mmHg 36%
    16:00 +24°C° 0 mm 2 mps 715 mmHg 40%
    17:00 +23°C° 0 mm 2 mps 714 mmHg 44%
    18:00 +20°C° 0 mm 2 mps 715 mmHg 49%
    19:00 +20°C° 0 mm 1 mps 715 mmHg 54%
    20:00 +18°C° 0 mm 1 mps 715 mmHg 58%
    21:00 +18°C° 0 mm 1 mps 715 mmHg 60%
    22:00 +16°C° 0 mm 1 mps 715 mmHg 61%
    23:00 +16°C° 0 mm 1 mps 715 mmHg 63%

    22 October, Tuesday

    Time Temperature Precipitation Wind Pressure Humidity
    00:00 +14°C° 0 mm 0 mps 715 mmHg 64%
    01:00 +14°C° 0 mm 0 mps 715 mmHg 65%
    02:00 +13°C° 0 mm 0 mps 715 mmHg 66%
    03:00 +13°C° 0 mm 0 mps 715 mmHg 67%
    04:00 +13°C° 0 mm 0 mps 715 mmHg 68%
    05:00 +12°C° 0 mm 0 mps 714 mmHg 70%
    06:00 +13°C° 0 mm 0 mps 715 mmHg 67%
    07:00 +14°C° 0 mm 0 mps 715 mmHg 65%
    08:00 +14°C° 0 mm 0 mps 715 mmHg 63%
    09:00 +17°C° 0 mm 0 mps 715 mmHg 55%
    10:00 +21°C° 0 mm 1 mps 715 mmHg 47%
    11:00 +23°C° 0 mm 1 mps 715 mmHg 39%
    12:00 +24°C° 0 mm 1 mps 715 mmHg 36%
    13:00 +25°C° 0 mm 1 mps 715 mmHg 32%
    14:00 +25°C° 0 mm 2 mps 715 mmHg 29%
    15:00 +24°C° 0 mm 2 mps 714 mmHg 33%
    16:00 +23°C° 0 mm 2 mps 714 mmHg 37%
    17:00 +20°C° 0 mm 2 mps 713 mmHg 41%
    18:00 +20°C° 0 mm 1 mps 713 mmHg 46%
    19:00 +18°C° 0 mm 1 mps 713 mmHg 51%
    20:00 +16°C° 0 mm 1 mps 713 mmHg 56%
    21:00 +15°C° 0 mm 1 mps 713 mmHg 57%
    22:00 +15°C° 0 mm 1 mps 713 mmHg 59%
    23:00 +13°C° 0 mm 0 mps 713 mmHg 61%
    Show more